Regional Weather Roundup
Issued by NWS

Home | Current Version | Previous Version | Graphics & Text | Print | Product List | Glossary On
Versions: 1 2 3 4 5 6 7 8 9 10 11 12 13 14 15 16 17 18 19 20 21 22 23 24 25 26 27 28 29 30 31 32 33 34 35 36 37 38 39 40 41 42 43 44 45 46 47 48 49 50
826
ASUS43 KOAX 261310
RWRNE

WEATHER ROUNDUP FOR NEBRASKA
NATIONAL WEATHER SERVICE OMAHA NE
800 AM CDT FRI MAY 26 2017

NOTES: SATELLITE DATA IS BEING USED TO AUGMENT CLOUD COVER ABOVE
       12000 FEET.
       "FAIR" INDICATES FEW OR NO CLOUDS BELOW 12,000 FEET WITH NO
       SIGNIFICANT WEATHER AND/OR OBSTRUCTIONS TO VISIBILITY.

  * THESE STATIONS DO NOT REPORT WEATHER SUCH AS RAIN...SNOW OR FOG.

NEZ001>004-019>022-054>056-261400-
NEBRASKA PANHANDLE

CITY           SKY/WX    TMP DP  RH WIND       PRES   REMARKS
SCOTTSBLUFF    SUNNY     45  38  76 NW6       29.96R
ALLIANCE       SUNNY     45  39  79 W5        29.93R
CHADRON        MOSUNNY   49  40  71 W7        29.93R
GORDON         FAIR      46  39  77 W6        29.92R
KIMBALL        SUNNY     45  38  77 NW7       29.98S
SIDNEY         SUNNY     47  40  76 N8        29.96S
$$

NEZ057>060-069>072-079>082-261400-
SOUTHWEST NEBRASKA

CITY           SKY/WX    TMP DP  RH WIND       PRES   REMARKS
NORTH PLATTE   CLOUDY    54  44  69 N13       29.90R
IMPERIAL       MOSUNNY   51  44  77 N9        29.93R
LEXINGTON      SUNNY     58  45  63 N18G24    29.86R
MCCOOK         CLOUDY    55  45  68 N8        29.88S
OGALLALA       CLOUDY    51  46  82 W3        29.94S
$$

NEZ005>010-023>029-035>040-094-261400-
NORTH CENTRAL NEBRASKA

CITY           SKY/WX    TMP DP  RH WIND       PRES   REMARKS
VALENTINE      SUNNY     53  39  59 NW5       29.89R
AINSWORTH      SUNNY     52  43  71 NW9       29.90R
BROKEN BOW     PTSUNNY   55  44  66 N21       29.86R
O`NEILL        CLOUDY    56  44  64 NW13      29.86R
ORD            CLOUDY    56  44  64 N13       29.84R
THEDFORD       PTSUNNY   53  43  69 NW8       29.92R
$$

NEZ041-046>049-061>064-073>077-083>087-261400-
SOUTH CENTRAL NEBRASKA

CITY           SKY/WX    TMP DP  RH WIND       PRES   REMARKS
GRAND ISLAND   MOSUNNY   57  47  69 N16       29.82R
AURORA         MOSUNNY   61  46  58 N22       29.79R
HASTINGS       MOSUNNY   59  45  59 N20       29.82R
HEBRON         CLOUDY    65  57  75 N15G23    29.76R
HOLDREGE       SUNNY     57  43  58 N15G22    29.85R
KEARNEY *      MOSUNNY   57  43  58 N18       29.84R
YORK           PTSUNNY   59  46  63 N23       29.77R
$$

NEZ011>018-030>034-042>045-261400-
NORTHEAST NEBRASKA

CITY           SKY/WX    TMP DP  RH WIND       PRES   REMARKS
NORFOLK        CLOUDY    58  46  64 NW17      29.79R
ALBION         CLOUDY    58  45  62 N14G22    29.81S
BLAIR          CLOUDY    62  58  87 NW5       29.72R
FREMONT        CLOUDY    64  55  73 NW9       29.74S
TEKAMAH        PTSUNNY   62  56  80 NW10      29.72R
WAYNE          MOSUNNY   60  48  65 NW21      29.77R
$$

NEZ050>053-065>068-078-088>093-261400-
SOUTHEAST NEBRASKA

CITY           SKY/WX    TMP DP  RH WIND       PRES   REMARKS
LINCOLN        MOSUNNY   66  57  72 N14       29.74R
OMAHA EPPLEY   CLOUDY    63  58  83 N5        29.72R
BEATRICE       MOSUNNY   63  61  92 W6        29.73R
FALLS CITY     SUNNY     65  60  84 CALM      29.69S
NEBRASKA CITY  PTSUNNY   65  57  76 CALM      29.72R
PLATTSMOUTH    CLOUDY    65  59  81 CALM      29.72R
$$

NEZ044-045-051>053-067-261400-
OMAHA AREA

CITY           SKY/WX    TMP DP  RH WIND       PRES   REMARKS
OMAHA EPPLEY   CLOUDY    63  58  83 N5        29.72R
BLAIR          CLOUDY    62  58  87 NW5       29.72R
FREMONT        CLOUDY    64  55  73 NW9       29.74S
MILLARD        CLOUDY    65  61  84 NW6       29.73R
OFFUTT AFB     MOSUNNY   64  59  82 NW6       29.71R
PLATTSMOUTH    CLOUDY    65  59  81 CALM      29.72R
WAHOO          FAIR      63  56  76 N15G21    29.73R
$$




USA.gov is the U.S. government's official web portal to all federal, state and local government web resources and services.